{"data":{"norad_id":56524,"epoch":"2026-05-25T01:07:25.122720Z","epoch_age_seconds":67630,"freshness":"FRESH","line1":"1 56524U 23065X   26145.04681855  .00000409  00000+0  24409-4 0  9998","line2":"2 56524  43.0032 141.5877 0001683 288.2600  71.8069 15.27577268168278","mean_motion":15.27577268,"eccentricity":0.0001683,"inclination_deg":43.0032,"raan_deg":141.5877,"arg_perigee_deg":288.26,"mean_anomaly_deg":71.8069,"bstar":2.4409e-5,"rev_number":16827,"period_min":94.266917305292,"perigee_km":481.90253764592,"apogee_km":484.21201563943,"semimajor_km":6861.1942766427,"source":"CELESTRAK","updated_at":"2026-05-25T13:38:18.110341Z"}}